Location: Unspecified
(0.0000°N, 0.0000°E)
Time: 19:19:54
(UTC+00:00)

S-56A Canister/Altair - Pass Details

Date: 20 November 2019
Orbit: 633 x 2500 km, 38.9° (Epoch: 08 December)

Event Time Altitude Azimuth Distance (km) Brightness Sun altitude
Rises 10:18:25 0° 208° (SSW) 5,780 12.1 61.0°
Reaches altitude 10° 10:23:02 10° 197° (SSW) 4,963 12.0 61.8°
Maximum altitude 10:34:40 28° 144° (SE) 3,892 12.1 63.8°
Drops below altitude 10° 10:46:11 10° 92° (E) 4,962 12.0 65.5°
Sets 10:50:41 0° 81° (E) 5,784 12.1 66.2°
